Location: Helsinki
(60.1699°N, 24.9384°E)
Time: 14:11:47
(UTC+02:00)

Tiros 1 - Pass Details

Date: 11 October 2022
Orbit: 629 x 662 km, 48.4° (Epoch: 07 December)

Event Time Altitude Azimuth Distance (km) Brightness Sun altitude
Rises 01:10:39 0° 250° (WSW) 2,995 - -36.7°
Reaches altitude 10° 01:13:33 10° 233° (SW) 2,081 - -36.7°
Maximum altitude 01:16:55 19° 189° (S) 1,554 - -36.7°
Drops below altitude 10° 01:20:17 10° 144° (SE) 2,072 - -36.7°
Sets 01:23:10 0° 127° (SE) 2,979 - -36.7°
